Location: Boiro
(42.6475°N, 8.8834°W)
Time: 00:44:45
(UTC+01:00)

Tiros 1 despin weight - Pass Details

Date: 04 December 2021
Orbit: 592 x 641 km, 48.2° (Epoch: 23 January)

Event Time Altitude Azimuth Distance (km) Brightness Sun altitude
Rises 12:57:46 0° 192° (SSW) 2,838 ? 24.7°
Reaches altitude 10° 13:00:52 10° 170° (S) 1,931 ? 24.8°
Maximum altitude 13:03:27 15° 134° (SE) 1,606 ? 24.8°
Drops below altitude 10° 13:06:02 10° 98° (E) 1,926 ? 24.9°
Sets 13:09:06 0° 76° (ENE) 2,827 ? 24.9°
